Time,TemperatureF,DewpointF,PressureIn,WindDirection,WindDirectionDegrees,WindSpeedMPH,WindSpeedGustMPH,Humidity,HourlyPrecipIn,Conditions,Clouds,dailyrainin,SoftwareType,DateUTC
2013-02-16 00:01:00,55.2,24.0,30.18,SE,137,1.0,2.0,30,0.00,,,0.00,weatherlink.com 1.10,2013-02-16 08:01:00,
2013-02-16 00:16:00,55.3,24.0,30.17,SE,129,0.0,2.0,30,0.00,,,0.00,weatherlink.com 1.10,2013-02-16 08:16:00,
2013-02-16 00:31:00,54.9,24.0,30.17,SSE,159,0.0,2.0,30,0.00,,,0.00,weatherlink.com 1.10,2013-02-16 08:31:00,
2013-02-16 00:46:00,53.8,24.0,30.17,SSE,160,0.0,1.0,32,0.00,,,0.00,weatherlink.com 1.10,2013-02-16 08:46:00,
2013-02-16 01:01:00,51.8,25.0,30.17,SSE,160,0.0,0.0,36,0.00,,,0.00,weatherlink.com 1.10,2013-02-16 09:01:00,
2013-02-16 01:16:00,50.1,26.0,30.17,SSE,160,0.0,0.0,39,0.00,,,0.00,weatherlink.com 1.10,2013-02-16 09:16:00,
2013-02-16 01:31:00,48.8,26.0,30.16,SSE,160,0.0,0.0,41,0.00,,,0.00,weatherlink.com 1.10,2013-02-16 09:31:00,
2013-02-16 01:46:00,48.0,26.0,30.16,SE,143,1.0,3.0,42,0.00,,,0.00,weatherlink.com 1.10,2013-02-16 09:46:00,
2013-02-16 02:01:00,47.4,26.0,30.16,SE,142,0.0,0.0,43,0.00,,,0.00,weatherlink.com 1.10,2013-02-16 10:01:00,
2013-02-16 02:16:00,46.4,26.0,30.15,SE,143,0.0,0.0,45,0.00,,,0.00,weatherlink.com 1.10,2013-02-16 10:16:00,
2013-02-16 02:31:00,45.7,26.0,30.15,SE,143,0.0,0.0,47,0.00,,,0.00,weatherlink.com 1.10,2013-02-16 10:31:00,
2013-02-16 02:46:00,45.2,27.0,30.14,SE,143,0.0,0.0,49,0.00,,,0.00,weatherlink.com 1.10,2013-02-16 10:46:00,
2013-02-16 03:01:00,44.9,27.0,30.14,SE,142,0.0,0.0,50,0.00,,,0.00,weatherlink.com 1.10,2013-02-16 11:01:00,
2013-02-16 03:16:00,44.5,27.0,30.14,SE,142,0.0,0.0,50,0.00,,,0.00,weatherlink.com 1.10,2013-02-16 11:16:00,
2013-02-16 03:31:00,44.4,27.0,30.14,SE,143,0.0,0.0,50,0.00,,,0.00,weatherlink.com 1.10,2013-02-16 11:31:00,
2013-02-16 03:46:00,44.1,27.0,30.14,SE,142,0.0,0.0,51,0.00,,,0.00,weatherlink.com 1.10,2013-02-16 11:46:00,
2013-02-16 04:01:00,43.9,27.0,30.14,SE,146,0.0,1.0,52,0.00,,,0.00,weatherlink.com 1.10,2013-02-16 12:01:00,
2013-02-16 04:16:00,43.8,27.0,30.14,SE,136,1.0,2.0,52,0.00,,,0.00,weatherlink.com 1.10,2013-02-16 12:16:00,
2013-02-16 04:31:00,44.8,26.0,30.14,SE,129,1.0,2.0,48,0.00,,,0.00,weatherlink.com 1.10,2013-02-16 12:31:00,
2013-02-16 04:46:00,45.7,26.0,30.14,SE,136,2.0,2.0,46,0.00,,,0.00,weatherlink.com 1.10,2013-02-16 12:46:00,
2013-02-16 05:01:00,48.0,25.0,30.14,SE,146,0.0,2.0,41,0.00,,,0.00,weatherlink.com 1.10,2013-02-16 13:01:00,
2013-02-16 05:16:00,48.8,25.0,30.15,East,101,0.0,3.0,39,0.00,,,0.00,weatherlink.com 1.10,2013-02-16 13:16:00,
2013-02-16 05:31:00,53.3,25.0,30.14,SSE,159,0.0,3.0,34,0.00,,,0.00,weatherlink.com 1.10,2013-02-16 13:31:00,
2013-02-16 05:46:00,53.4,25.0,30.14,SE,134,1.0,4.0,33,0.00,,,0.00,weatherlink.com 1.10,2013-02-16 13:46:00,
2013-02-16 06:01:00,55.1,23.0,30.15,SE,133,1.0,5.0,29,0.00,,,0.00,weatherlink.com 1.10,2013-02-16 14:01:00,
2013-02-16 06:16:00,56.0,23.0,30.15,SSE,148,1.0,3.0,28,0.00,,,0.00,weatherlink.com 1.10,2013-02-16 14:16:00,
2013-02-16 06:31:00,56.5,22.0,30.15,SE,127,2.0,3.0,26,0.00,,,0.00,weatherlink.com 1.10,2013-02-16 14:31:00,
2013-02-16 06:47:00,55.4,24.0,30.16,SE,135,1.0,2.0,30,0.00,,,0.00,weatherlink.com 1.10,2013-02-16 14:47:00,
2013-02-16 07:02:00,55.9,22.0,30.16,SE,134,1.0,4.0,27,0.00,,,0.00,weatherlink.com 1.10,2013-02-16 15:02:00,
2013-02-16 07:17:00,58.6,23.0,30.16,SE,130,2.0,4.0,25,0.00,,,0.00,weatherlink.com 1.10,2013-02-16 15:17:00,
2013-02-16 07:32:00,60.3,23.0,30.17,SE,127,2.0,5.0,24,0.00,,,0.00,weatherlink.com 1.10,2013-02-16 15:32:00,
2013-02-16 07:47:00,59.2,24.0,30.17,SE,129,2.0,3.0,26,0.00,,,0.00,weatherlink.com 1.10,2013-02-16 15:47:00,
2013-02-16 08:02:00,63.2,24.0,30.17,SE,132,7.0,7.0,22,0.00,,,0.00,weatherlink.com 1.10,2013-02-16 16:02:00,
2013-02-16 08:17:00,65.1,23.0,30.17,ENE,68,5.0,7.0,20,0.00,,,0.00,weatherlink.com 1.10,2013-02-16 16:17:00,
2013-02-16 08:32:00,66.2,24.0,30.17,East,88,2.0,7.0,20,0.00,,,0.00,weatherlink.com 1.10,2013-02-16 16:32:00,
2013-02-16 08:47:00,67.4,24.0,30.17,East,100,3.0,6.0,19,0.00,,,0.00,weatherlink.com 1.10,2013-02-16 16:47:00,
2013-02-16 09:02:00,68.6,22.0,30.17,SE,125,3.0,6.0,17,0.00,,,0.00,weatherlink.com 1.10,2013-02-16 17:02:00,
2013-02-16 09:17:00,69.7,21.0,30.17,East,96,6.0,9.0,16,0.00,,,0.00,weatherlink.com 1.10,2013-02-16 17:17:00,
2013-02-16 09:32:00,70.1,22.0,30.17,East,84,5.0,7.0,16,0.00,,,0.00,weatherlink.com 1.10,2013-02-16 17:32:00,
2013-02-16 09:47:00,71.0,22.0,30.17,NE,44,5.0,8.0,16,0.00,,,0.00,weatherlink.com 1.10,2013-02-16 17:47:00,
2013-02-16 10:02:00,71.5,21.0,30.16,NNE,25,3.0,6.0,15,0.00,,,0.00,weatherlink.com 1.10,2013-02-16 18:02:00,
2013-02-16 10:17:00,72.1,22.0,30.16,NE,43,4.0,6.0,15,0.00,,,0.00,weatherlink.com 1.10,2013-02-16 18:17:00,
2013-02-16 10:32:00,73.3,23.0,30.16,ENE,71,2.0,5.0,15,0.00,,,0.00,weatherlink.com 1.10,2013-02-16 18:32:00,
2013-02-16 10:47:00,74.7,22.0,30.15,NE,41,4.0,7.0,14,0.00,,,0.00,weatherlink.com 1.10,2013-02-16 18:47:00,
2013-02-16 11:03:00,75.0,19.0,30.14,ESE,113,4.0,7.0,12,0.00,,,0.00,weatherlink.com 1.10,2013-02-16 19:03:00,
2013-02-16 11:17:00,76.3,16.0,30.13,East,101,5.0,9.0,10,0.00,,,0.00,weatherlink.com 1.10,2013-02-16 19:17:00,
2013-02-16 11:32:00,76.1,13.0,30.12,ENE,74,7.0,9.0,9,0.00,,,0.00,weatherlink.com 1.10,2013-02-16 19:32:00,
2013-02-16 11:48:00,76.7,16.0,30.11,NE,43,4.0,8.0,10,0.00,,,0.00,weatherlink.com 1.10,2013-02-16 19:48:00,
2013-02-16 12:03:00,77.4,14.0,30.10,SSE,149,5.0,10.0,9,0.00,,,0.00,weatherlink.com 1.10,2013-02-16 20:03:00,
2013-02-16 12:18:00,77.7,17.0,30.09,SE,135,4.0,6.0,10,0.00,,,0.00,weatherlink.com 1.10,2013-02-16 20:18:00,
2013-02-16 12:33:00,78.0,15.0,30.08,ENE,70,3.0,9.0,9,0.00,,,0.00,weatherlink.com 1.10,2013-02-16 20:33:00,
2013-02-16 12:48:00,78.9,18.0,30.07,East,94,3.0,8.0,10,0.00,,,0.00,weatherlink.com 1.10,2013-02-16 20:48:00,
2013-02-16 13:03:00,80.0,13.0,30.05,SE,142,0.0,5.0,8,0.00,,,0.00,weatherlink.com 1.10,2013-02-16 21:03:00,
2013-02-16 13:18:00,79.8,16.0,30.05,ENE,71,3.0,6.0,9,0.00,,,0.00,weatherlink.com 1.10,2013-02-16 21:18:00,
2013-02-16 13:33:00,79.8,16.0,30.04,West,263,3.0,3.0,9,0.00,,,0.00,weatherlink.com 1.10,2013-02-16 21:33:00,
2013-02-16 13:48:00,77.9,25.0,30.04,West,274,3.0,9.0,14,0.00,,,0.00,weatherlink.com 1.10,2013-02-16 21:48:00,
2013-02-16 14:03:00,77.0,24.0,30.03,SW,231,7.0,12.0,14,0.00,,,0.00,weatherlink.com 1.10,2013-02-16 22:03:00,
2013-02-16 14:18:00,77.0,27.0,30.03,West,266,3.0,10.0,16,0.00,,,0.00,weatherlink.com 1.10,2013-02-16 22:18:00,
2013-02-16 14:33:00,76.4,24.0,30.02,WSW,255,6.0,13.0,14,0.00,,,0.00,weatherlink.com 1.10,2013-02-16 22:33:00,
2013-02-16 14:48:00,75.7,23.0,30.02,SW,231,7.0,12.0,14,0.00,,,0.00,weatherlink.com 1.10,2013-02-16 22:48:00,
2013-02-16 15:03:00,75.6,23.0,30.02,WNW,292,4.0,10.0,14,0.00,,,0.00,weatherlink.com 1.10,2013-02-16 23:03:00,
2013-02-16 15:18:00,75.4,21.0,30.02,West,280,6.0,11.0,13,0.00,,,0.00,weatherlink.com 1.10,2013-02-16 23:18:00,
2013-02-16 15:33:00,74.7,21.0,30.02,WNW,283,6.0,11.0,13,0.00,,,0.00,weatherlink.com 1.10,2013-02-16 23:33:00,
2013-02-16 15:48:00,74.4,20.0,30.02,West,280,2.0,13.0,13,0.00,,,0.00,weatherlink.com 1.10,2013-02-16 23:48:00,
2013-02-16 16:03:00,74.2,22.0,30.02,West,273,5.0,10.0,14,0.00,,,0.00,weatherlink.com 1.10,2013-02-17 00:03:00,
2013-02-16 16:18:00,73.1,19.0,30.02,WNW,283,9.0,11.0,13,0.00,,,0.00,weatherlink.com 1.10,2013-02-17 00:18:00,
2013-02-16 16:33:00,72.6,19.0,30.01,WNW,290,7.0,10.0,13,0.00,,,0.00,weatherlink.com 1.10,2013-02-17 00:33:00,
2013-02-16 16:48:00,72.2,20.0,30.01,WSW,252,1.0,7.0,14,0.00,,,0.00,weatherlink.com 1.10,2013-02-17 00:48:00,
2013-02-16 17:03:00,72.4,20.0,30.01,SW,221,0.0,6.0,14,0.00,,,0.00,weatherlink.com 1.10,2013-02-17 01:03:00,
2013-02-16 17:18:00,72.2,20.0,30.01,West,278,0.0,3.0,14,0.00,,,0.00,weatherlink.com 1.10,2013-02-17 01:18:00,
2013-02-16 17:33:00,69.9,23.0,30.01,West,278,0.0,1.0,17,0.00,,,0.00,weatherlink.com 1.10,2013-02-17 01:33:00,
2013-02-16 17:48:00,65.8,25.0,30.01,West,278,0.0,0.0,21,0.00,,,0.00,weatherlink.com 1.10,2013-02-17 01:48:00,
2013-02-16 18:03:00,62.6,26.0,30.01,West,278,0.0,0.0,25,0.00,,,0.00,weatherlink.com 1.10,2013-02-17 02:03:00,
2013-02-16 18:18:00,60.7,27.0,30.01,West,278,0.0,0.0,28,0.00,,,0.00,weatherlink.com 1.10,2013-02-17 02:18:00,
2013-02-16 18:33:00,58.3,27.0,30.01,West,278,0.0,0.0,30,0.00,,,0.00,weatherlink.com 1.10,2013-02-17 02:33:00,
2013-02-16 18:48:00,56.4,27.0,30.02,West,276,0.0,1.0,32,0.00,,,0.00,weatherlink.com 1.10,2013-02-17 02:48:00,
2013-02-16 19:03:00,54.7,27.0,30.01,West,277,0.0,0.0,35,0.00,,,0.00,weatherlink.com 1.10,2013-02-17 03:03:00,
2013-02-16 19:18:00,53.5,28.0,30.01,West,277,1.0,1.0,37,0.00,,,0.00,weatherlink.com 1.10,2013-02-17 03:18:00,
2013-02-16 19:33:00,52.2,27.0,30.01,West,277,0.0,1.0,38,0.00,,,0.00,weatherlink.com 1.10,2013-02-17 03:33:00,
2013-02-16 19:48:00,50.9,27.0,30.01,West,277,0.0,1.0,40,0.00,,,0.00,weatherlink.com 1.10,2013-02-17 03:48:00,
2013-02-16 20:03:00,49.9,26.0,30.01,West,277,0.0,0.0,40,0.00,,,0.00,weatherlink.com 1.10,2013-02-17 04:03:00,
2013-02-16 20:18:00,48.6,25.0,30.01,West,277,0.0,1.0,40,0.00,,,0.00,weatherlink.com 1.10,2013-02-17 04:18:00,
2013-02-16 20:33:00,47.5,25.0,30.01,West,277,0.0,0.0,42,0.00,,,0.00,weatherlink.com 1.10,2013-02-17 04:33:00,
2013-02-16 20:48:00,46.9,26.0,30.00,West,277,0.0,1.0,44,0.00,,,0.00,weatherlink.com 1.10,2013-02-17 04:48:00,
2013-02-16 21:03:00,46.3,26.0,30.00,West,277,0.0,1.0,45,0.00,,,0.00,weatherlink.com 1.10,2013-02-17 05:03:00,
2013-02-16 21:18:00,45.7,26.0,30.00,West,277,0.0,1.0,47,0.00,,,0.00,weatherlink.com 1.10,2013-02-17 05:18:00,
2013-02-16 21:33:00,45.1,26.0,30.00,West,277,0.0,1.0,48,0.00,,,0.00,weatherlink.com 1.10,2013-02-17 05:33:00,
2013-02-16 21:48:00,44.6,26.0,30.00,West,277,0.0,1.0,49,0.00,,,0.00,weatherlink.com 1.10,2013-02-17 05:48:00,
2013-02-16 22:03:00,44.1,27.0,30.01,West,277,0.0,0.0,51,0.00,,,0.00,weatherlink.com 1.10,2013-02-17 06:03:00,
2013-02-16 22:18:00,43.5,27.0,30.00,West,277,0.0,0.0,52,0.00,,,0.00,weatherlink.com 1.10,2013-02-17 06:18:00,
2013-02-16 22:33:00,42.9,26.0,30.00,West,277,0.0,0.0,52,0.00,,,0.00,weatherlink.com 1.10,2013-02-17 06:33:00,
2013-02-16 22:48:00,42.6,26.0,29.99,West,277,0.0,0.0,52,0.00,,,0.00,weatherlink.com 1.10,2013-02-17 06:48:00,
2013-02-16 23:03:00,42.2,26.0,29.99,West,277,0.0,0.0,53,0.00,,,0.00,weatherlink.com 1.10,2013-02-17 07:03:00,
2013-02-16 23:19:00,41.7,26.0,29.99,ESE,114,0.0,0.0,53,0.00,,,0.00,weatherlink.com 1.10,2013-02-17 07:19:00,
2013-02-16 23:34:00,41.0,26.0,29.99,ESE,114,0.0,0.0,55,0.00,,,0.00,weatherlink.com 1.10,2013-02-17 07:34:00,
2013-02-16 23:49:00,40.4,26.0,29.99,ESE,114,0.0,0.0,56,0.00,,,0.00,weatherlink.com 1.10,2013-02-17 07:49:00,